Flag for U.S.A. Weather past 2 weeks in Greenville, South Carolina, U.S.A.

Now
74 °F

Partly sunny.


Feels Like: 76 °F
Forecast: 64 / 76 °F
Wind: 7 mph from East

Location: Greenville Downtown Airport

Current Time: Sep 17, 2014 at 6:15:52 PM

Latest Report: Sep 17, 2014 at 4:53 PM


Visibility: 10 mi

Pressure: 29.91 "Hg

Humidity: 71%

Dew point: 64 °F

Location of GreenvilleLocation

Historic Weather in Greenville — Graph

°F

Greenville temperature yesterday

Maximum temperature yesterday: 86 °F (at 2:53 PM)
Minimum temperature yesterday: 69 °F (at 11:53 PM)
Average temperature yesterday: 75 °F

Past Weeks' High & Low Weather Summary

 TemperatureHumidityPressure
High92 °F (Sep 3, 3:53 PM)97% (Sep 13, 5:53 AM)30.27 "Hg (Sep 13, 5:53 AM)
Low62 °F (Sep 14, 6:53 AM)44% (Sep 2, 4:53 PM)29.91 "Hg (Sep 17, 4:53 PM)
Average75 °F77%30.08 "Hg
* Reported Sep 2 4:53 PM — Sep 17 4:53 PM, Greenville, Weather by CustomWeather, © 2014

Note: Actual official high and low records may vary slightly from our data, if they occured in-between our weather recording intervals... More about our weather records

Advertising

Greenville weather history for previous 24 hours

 ConditionsComfort  
Time TempWeatherWind HumidityBarometerVisibility
4:53 PM
Sep 17
74 °FPartly sunny.7 mph71%29.91 "Hg10 mi
4:00 PM75 °FScattered clouds.10 mph66%29.95 "Hg10 mi
2:53 PM72 °FOvercast.9 mph73%29.95 "Hg10 mi
1:53 PM73 °FOvercast.5 mph71%29.95 "Hg10 mi
12:53 PM73 °FMore clouds than sun.7 mph71%29.96 "Hg10 mi
11:53 AM72 °FMore clouds than sun.7 mph73%29.97 "Hg10 mi
10:53 AM69 °FOvercast.8 mph81%29.98 "Hg10 mi
9:53 AM69 °FOvercast.9 mph84%29.98 "Hg10 mi
8:53 AM69 °FLow clouds.10 mph84%29.97 "Hg10 mi
8:01 AM68 °FMostly cloudy.10 mph87%29.99 "Hg10 mi
7:53 AM68 °FMostly cloudy.12 mph90%29.96 "Hg10 mi
6:53 AM68 °FOvercast.5 mph90%29.95 "Hg10 mi
5:53 AM68 °FMostly cloudy.9 mph90%29.94 "Hg10 mi
4:53 AM68 °FPassing clouds.9 mph90%29.94 "Hg10 mi
3:53 AM69 °FMostly cloudy.12 mph87%29.95 "Hg10 mi
2:53 AM70 °FOvercast.12 mph84%29.96 "Hg10 mi
1:53 AM71 °FOvercast.10 mph78%29.96 "Hg10 mi
12:53 AM70 °FClear.3 mph84%29.96 "Hg10 mi
11:53 PM
Sep 16
69 °FClear.No wind90%29.96 "Hg10 mi
10:53 PM70 °FClear.5 mph90%29.96 "Hg10 mi
9:53 PM70 °FClear.No wind90%29.97 "Hg10 mi
8:53 PM71 °FClear.3 mph90%29.97 "Hg10 mi
7:53 PM72 °FSunny.No wind84%29.95 "Hg10 mi
7:02 PM72 °FThundershowers. Partly sunny.7 mph91%29.98 "Hg10 mi
Weather by CustomWeather, © 2014

See weather overviewHow to use our weather pages